Location: Newark
(45.5000°N, 11.4167°E)
Time: 08:34:34
(UTC+00:00)

Explorer 11/Cluster Stage 4 - Pass Details

Date: 24 August 2019
Orbit: 467 x 1260 km, 28.8° (Epoch: 19 September)

Event Time Altitude Azimuth Distance (km) Brightness Sun altitude
Rises 09:25:05 0° 223° (SW) 4,080 10.3 48.2°
Reaches altitude 10° 09:28:52 10° 206° (SSW) 3,186 10.0 48.6°
Maximum altitude 09:34:09 19° 165° (SSE) 2,604 10.3 49.3°
Drops below altitude 10° 09:39:28 10° 125° (SE) 3,207 10.6 49.8°
Sets 09:43:16 0° 109° (ESE) 4,116 10.8 50.3°
